This is the latest recevied weather packets stored in our database for station/object 9A3SWO. If no packets are shown the sender has not sent any weather packets the latest 10 day(s).
| Time | Temp. | Humidity | Pressure | Rain* | Wind** | Luminosity | Snow |
|---|---|---|---|---|---|---|---|
| 1777707197 | 17.22° C | 45% | 1026.2 hPa | - | - | - | - |
| 1777706597 | 16.67° C | 44% | 1026.3 hPa | - | - | - | - |
| 1777705997 | 16.67° C | 44% | 1026.4 hPa | - | - | - | - |
| 1777705397 | 16.67° C | 44% | 1026.4 hPa | - | - | - | - |
| 1777704798 | 16.11° C | 44% | 1026.5 hPa | - | - | - | - |
| 1777704197 | 16.11° C | 44% | 1026.5 hPa | - | - | - | - |
| 1777703597 | 16.11° C | 44% | 1026.6 hPa | - | - | - | - |
| 1777702997 | 15.56° C | 45% | 1026.6 hPa | - | - | - | - |
| 1777702396 | 15.56° C | 45% | 1026.7 hPa | - | - | - | - |
| 1777701797 | 15.56° C | 45% | 1026.7 hPa | - | - | - | - |
| 1777701197 | 15° C | 45% | 1026.7 hPa | - | - | - | - |
| 1777700597 | 15° C | 45% | 1026.7 hPa | - | - | - | - |
| 1777699997 | 15° C | 44% | 1026.7 hPa | - | - | - | - |
| 1777699397 | 15° C | 44% | 1026.6 hPa | - | - | - | - |
| 1777698797 | 13.89° C | 46% | 1026.8 hPa | - | - | - | - |
| 1777698196 | 14.44° C | 44% | 1026.8 hPa | - | - | - | - |
| 1777697597 | 14.44° C | 44% | 1026.7 hPa | - | - | - | - |
| 1777696996 | 13.89° C | 44% | 1026.7 hPa | - | - | - | - |
| 1777696396 | 13.89° C | 44% | 1026.7 hPa | - | - | - | - |
| 1777695796 | 13.89° C | 45% | 1026.7 hPa | - | - | - | - |
| 1777695197 | 13.89° C | 45% | 1026.7 hPa | - | - | - | - |
| 1777694597 | 13.89° C | 45% | 1026.6 hPa | - | - | - | - |
| 1777693997 | 13.89° C | 45% | 1026.7 hPa | - | - | - | - |
| 1777693396 | 13.89° C | 45% | 1026.7 hPa | - | - | - | - |
| 1777692798 | 13.89° C | 45% | 1026.8 hPa | - | - | - | - |
* Rain since midnight (hover to see other rain measurements)
** Current wind speed in m/s (hover to see current wind gust speed)